Time,TemperatureF,DewpointF,PressureIn,WindDirection,WindDirectionDegrees,WindSpeedMPH,WindSpeedGustMPH,Humidity,HourlyPrecipIn,Conditions,Clouds,dailyrainin,SolarRadiationWatts/m^2,SoftwareType,DateUTC
2015-04-27 00:02:00,41.5,39.7,29.53,SSW,199,0.0,0.0,93,0.00,,,0.00,0.00,Weather logger V2.2.,2015-04-27 04:02:00,
2015-04-27 00:07:00,41.4,39.6,29.52,SSW,199,0.0,0.0,93,0.00,,,0.00,0.00,Weather logger V2.2.,2015-04-27 04:07:00,
2015-04-27 00:12:00,41.4,39.6,29.53,SSW,200,0.0,0.0,93,0.00,,,0.00,0.00,Weather logger V2.2.,2015-04-27 04:12:00,
2015-04-27 00:17:00,41.2,39.4,29.53,SSW,200,0.0,0.0,93,0.00,,,0.00,0.00,Weather logger V2.2.,2015-04-27 04:17:00,
2015-04-27 00:22:00,41.2,39.6,29.53,SSW,200,0.0,0.0,94,0.00,,,0.00,0.00,Weather logger V2.2.,2015-04-27 04:22:00,
2015-04-27 00:27:00,41.0,39.7,29.53,SSW,200,0.0,0.0,95,0.00,,,0.00,0.00,Weather logger V2.2.,2015-04-27 04:27:00,
2015-04-27 00:33:00,40.8,39.7,29.53,SSW,200,0.0,0.0,96,0.00,,,0.00,0.00,Weather logger V2.2.,2015-04-27 04:33:00,
2015-04-27 00:38:00,40.5,39.9,29.53,SSW,200,0.0,0.0,98,0.00,,,0.00,0.00,Weather logger V2.2.,2015-04-27 04:38:00,
2015-04-27 00:43:00,39.9,39.7,29.53,SSW,200,0.0,0.0,99,0.00,,,0.00,0.00,Weather logger V2.2.,2015-04-27 04:43:00,
2015-04-27 00:48:00,39.6,39.4,29.53,SSW,200,0.0,0.0,99,0.00,,,0.00,0.00,Weather logger V2.2.,2015-04-27 04:48:00,
2015-04-27 00:53:00,39.4,39.2,29.54,SSW,200,0.0,0.0,99,0.00,,,0.00,0.00,Weather logger V2.2.,2015-04-27 04:53:00,
2015-04-27 00:58:00,39.0,38.8,29.53,SSW,200,0.0,0.0,99,0.00,,,0.00,0.00,Weather logger V2.2.,2015-04-27 04:58:00,
2015-04-27 01:03:00,38.8,38.7,29.54,SSW,200,0.0,0.0,99,0.00,,,0.00,0.00,Weather logger V2.2.,2015-04-27 05:03:00,
2015-04-27 01:08:00,38.7,38.5,29.53,SSW,200,0.0,0.0,99,0.00,,,0.00,0.00,Weather logger V2.2.,2015-04-27 05:08:00,
2015-04-27 01:13:00,38.7,38.5,29.53,SSW,200,0.0,0.0,99,0.00,,,0.00,0.00,Weather logger V2.2.,2015-04-27 05:13:00,
2015-04-27 01:18:00,38.7,38.5,29.53,SSW,200,0.0,0.0,99,0.00,,,0.00,0.00,Weather logger V2.2.,2015-04-27 05:18:00,
2015-04-27 01:23:00,38.5,38.3,29.53,SSW,200,0.0,0.0,99,0.00,,,0.00,0.00,Weather logger V2.2.,2015-04-27 05:23:00,
2015-04-27 01:28:00,38.5,38.3,29.53,SSW,200,0.0,0.0,99,0.00,,,0.00,0.00,Weather logger V2.2.,2015-04-27 05:28:00,
2015-04-27 01:33:00,38.3,38.1,29.53,SSW,200,0.0,0.0,99,0.00,,,0.00,0.00,Weather logger V2.2.,2015-04-27 05:33:00,
2015-04-27 01:38:00,38.1,37.9,29.53,SSW,200,0.0,0.0,99,0.00,,,0.00,0.00,Weather logger V2.2.,2015-04-27 05:38:00,
2015-04-27 01:43:00,37.9,37.8,29.53,SSW,200,0.0,0.0,99,0.00,,,0.00,0.00,Weather logger V2.2.,2015-04-27 05:43:00,
2015-04-27 01:49:00,37.8,37.0,29.53,SSW,200,0.0,0.0,97,0.00,,,0.00,0.00,Weather logger V2.2.,2015-04-27 05:49:00,
2015-04-27 01:54:00,37.6,36.9,29.54,SSW,200,0.0,0.0,97,0.00,,,0.00,0.00,Weather logger V2.2.,2015-04-27 05:54:00,
2015-04-27 01:59:00,37.4,36.7,29.54,SSW,200,0.0,0.0,97,0.00,,,0.00,0.00,Weather logger V2.2.,2015-04-27 05:59:00,
2015-04-27 02:04:00,37.2,36.5,29.53,SSW,200,0.0,0.0,97,0.00,,,0.00,0.00,Weather logger V2.2.,2015-04-27 06:04:00,
2015-04-27 02:09:00,37.0,36.3,29.53,SSW,200,0.0,0.0,97,0.00,,,0.00,0.00,Weather logger V2.2.,2015-04-27 06:09:00,
2015-04-27 02:14:00,36.9,36.1,29.53,SSW,200,0.0,0.0,97,0.00,,,0.00,0.00,Weather logger V2.2.,2015-04-27 06:14:00,
2015-04-27 02:19:00,36.7,36.0,29.53,SSW,200,0.0,0.0,97,0.00,,,0.00,0.00,Weather logger V2.2.,2015-04-27 06:19:00,
2015-04-27 02:24:00,36.5,35.8,29.53,SSW,200,0.0,0.0,97,0.00,,,0.00,0.00,Weather logger V2.2.,2015-04-27 06:24:00,
2015-04-27 02:29:00,36.7,36.0,29.53,SSW,200,0.0,0.0,97,0.00,,,0.00,0.00,Weather logger V2.2.,2015-04-27 06:29:00,
2015-04-27 02:34:00,36.5,35.8,29.53,SSW,200,0.0,0.0,97,0.00,,,0.00,0.00,Weather logger V2.2.,2015-04-27 06:34:00,
2015-04-27 02:39:00,36.5,35.8,29.53,SSW,200,0.0,0.0,97,0.00,,,0.00,0.00,Weather logger V2.2.,2015-04-27 06:39:00,
2015-04-27 02:44:00,36.5,35.8,29.53,SSW,200,0.0,0.0,97,0.00,,,0.00,0.00,Weather logger V2.2.,2015-04-27 06:44:00,
2015-04-27 02:49:00,36.5,35.8,29.53,SSW,199,0.0,0.0,97,0.00,,,0.00,0.00,Weather logger V2.2.,2015-04-27 06:49:00,
2015-04-27 02:54:00,36.3,35.6,29.53,SSW,199,0.0,0.0,97,0.00,,,0.00,0.00,Weather logger V2.2.,2015-04-27 06:54:00,
2015-04-27 02:59:00,36.1,35.4,29.53,SSW,200,0.0,0.0,97,0.00,,,0.00,0.00,Weather logger V2.2.,2015-04-27 06:59:00,
2015-04-27 03:05:00,36.1,35.4,29.53,SSW,200,0.0,0.0,97,0.00,,,0.00,0.00,Weather logger V2.2.,2015-04-27 07:05:00,
2015-04-27 03:10:00,36.0,35.2,29.54,SSW,200,0.0,0.0,97,0.00,,,0.00,0.00,Weather logger V2.2.,2015-04-27 07:10:00,
2015-04-27 03:15:00,36.0,35.2,29.53,SSW,200,0.0,0.0,97,0.00,,,0.00,0.00,Weather logger V2.2.,2015-04-27 07:15:00,
2015-04-27 03:20:00,36.0,35.2,29.53,SSW,200,0.0,0.0,97,0.00,,,0.00,0.00,Weather logger V2.2.,2015-04-27 07:20:00,
2015-04-27 03:25:00,36.0,35.2,29.54,SSW,200,0.0,0.0,97,0.00,,,0.00,0.00,Weather logger V2.2.,2015-04-27 07:25:00,
2015-04-27 03:30:00,36.0,35.2,29.53,SSW,200,0.0,0.0,97,0.00,,,0.00,0.00,Weather logger V2.2.,2015-04-27 07:30:00,
2015-04-27 03:35:00,35.8,35.1,29.54,SSW,200,0.0,0.0,97,0.00,,,0.00,0.00,Weather logger V2.2.,2015-04-27 07:35:00,
2015-04-27 03:40:00,35.6,35.1,29.53,SSW,200,0.0,0.0,98,0.00,,,0.00,0.00,Weather logger V2.2.,2015-04-27 07:40:00,
2015-04-27 03:45:00,35.6,35.1,29.54,SSW,200,0.0,0.0,98,0.00,,,0.00,0.00,Weather logger V2.2.,2015-04-27 07:45:00,
2015-04-27 03:50:00,35.4,34.9,29.54,SSW,200,0.0,0.0,98,0.00,,,0.00,0.00,Weather logger V2.2.,2015-04-27 07:50:00,
2015-04-27 03:55:00,35.4,34.9,29.54,SSW,200,0.0,0.0,98,0.00,,,0.00,0.00,Weather logger V2.2.,2015-04-27 07:55:00,
2015-04-27 04:00:00,35.4,34.7,29.53,SSW,201,0.0,0.0,97,0.00,,,0.00,0.00,Weather logger V2.2.,2015-04-27 08:00:00,
2015-04-27 04:05:00,35.4,34.7,29.54,SSW,201,0.0,0.0,97,0.00,,,0.00,0.00,Weather logger V2.2.,2015-04-27 08:05:00,
2015-04-27 04:10:00,35.4,34.9,29.53,SSW,200,0.0,0.0,98,0.00,,,0.00,0.00,Weather logger V2.2.,2015-04-27 08:10:00,
2015-04-27 04:15:00,35.4,34.9,29.53,SSW,200,0.0,0.0,98,0.00,,,0.00,0.00,Weather logger V2.2.,2015-04-27 08:15:00,
2015-04-27 04:21:00,35.2,34.7,29.53,SSW,200,0.0,0.0,98,0.00,,,0.00,0.00,Weather logger V2.2.,2015-04-27 08:21:00,
2015-04-27 04:26:00,35.1,34.5,29.52,SSW,200,0.0,0.0,98,0.00,,,0.00,0.00,Weather logger V2.2.,2015-04-27 08:26:00,
2015-04-27 04:31:00,35.1,34.5,29.53,SSW,201,0.0,0.0,98,0.00,,,0.00,0.00,Weather logger V2.2.,2015-04-27 08:31:00,
2015-04-27 04:36:00,34.9,34.3,29.53,SSW,201,0.0,0.0,98,0.00,,,0.00,0.00,Weather logger V2.2.,2015-04-27 08:36:00,
2015-04-27 04:41:00,34.7,34.2,29.53,SSW,201,0.0,0.0,98,0.00,,,0.00,0.00,Weather logger V2.2.,2015-04-27 08:41:00,
2015-04-27 04:46:00,34.7,34.2,29.53,SSW,200,0.0,0.0,98,0.00,,,0.00,0.00,Weather logger V2.2.,2015-04-27 08:46:00,
2015-04-27 04:51:00,34.5,34.0,29.53,SSW,201,0.0,0.0,98,0.00,,,0.00,0.00,Weather logger V2.2.,2015-04-27 08:51:00,
2015-04-27 04:56:00,34.7,34.2,29.53,SSW,201,0.0,0.0,98,0.00,,,0.00,0.00,Weather logger V2.2.,2015-04-27 08:56:00,
2015-04-27 05:01:00,34.5,34.0,29.53,SSW,201,0.0,0.0,98,0.00,,,0.00,0.00,Weather logger V2.2.,2015-04-27 09:01:00,
2015-04-27 05:06:00,34.5,34.0,29.53,SW,220,0.0,0.0,98,0.00,,,0.00,0.00,Weather logger V2.2.,2015-04-27 09:06:00,
2015-04-27 05:11:00,34.5,34.0,29.53,SSW,199,0.0,0.0,98,0.00,,,0.00,0.00,Weather logger V2.2.,2015-04-27 09:11:00,
2015-04-27 05:16:00,34.5,34.0,29.54,SSW,199,0.0,0.0,98,0.00,,,0.00,0.00,Weather logger V2.2.,2015-04-27 09:16:00,
2015-04-27 05:21:00,34.5,34.0,29.54,SSW,199,0.0,0.0,98,0.00,,,0.00,0.00,Weather logger V2.2.,2015-04-27 09:21:00,
2015-04-27 05:26:00,34.5,34.0,29.54,SSW,199,0.0,0.0,98,0.00,,,0.00,0.00,Weather logger V2.2.,2015-04-27 09:26:00,
2015-04-27 05:31:00,34.3,33.8,29.54,SSW,199,0.0,0.0,98,0.00,,,0.00,0.00,Weather logger V2.2.,2015-04-27 09:31:00,
2015-04-27 05:37:00,34.2,33.6,29.54,SSW,199,0.0,0.0,98,0.00,,,0.00,0.00,Weather logger V2.2.,2015-04-27 09:37:00,
2015-04-27 05:42:00,34.2,33.6,29.55,SSW,199,0.0,0.0,98,0.00,,,0.00,0.00,Weather logger V2.2.,2015-04-27 09:42:00,
2015-04-27 05:47:00,34.2,34.0,29.54,SSW,199,0.0,0.0,99,0.00,,,0.00,0.00,Weather logger V2.2.,2015-04-27 09:47:00,
2015-04-27 05:52:00,34.0,33.8,29.54,SSW,199,0.0,0.0,99,0.00,,,0.00,0.00,Weather logger V2.2.,2015-04-27 09:52:00,
2015-04-27 05:57:00,33.8,33.3,29.54,South,187,0.0,0.0,98,0.00,,,0.00,0.00,Weather logger V2.2.,2015-04-27 09:57:00,
2015-04-27 06:02:00,33.8,33.6,29.55,South,183,0.0,0.0,99,0.00,,,0.00,0.00,Weather logger V2.2.,2015-04-27 10:02:00,
2015-04-27 06:07:00,33.6,33.4,29.54,South,183,0.0,0.0,99,0.00,,,0.00,0.00,Weather logger V2.2.,2015-04-27 10:07:00,
2015-04-27 06:12:00,33.4,32.9,29.54,South,183,0.0,0.0,98,0.00,,,0.00,0.00,Weather logger V2.2.,2015-04-27 10:12:00,
2015-04-27 06:17:00,33.6,33.1,29.55,South,184,0.0,0.0,98,0.00,,,0.00,0.00,Weather logger V2.2.,2015-04-27 10:17:00,
2015-04-27 06:22:00,33.6,33.1,29.55,South,184,0.0,0.0,98,0.00,,,0.00,0.00,Weather logger V2.2.,2015-04-27 10:22:00,
2015-04-27 06:27:00,33.6,33.4,29.55,South,183,0.0,0.0,99,0.00,,,0.00,0.00,Weather logger V2.2.,2015-04-27 10:27:00,
2015-04-27 06:32:00,33.6,33.4,29.56,South,185,0.0,0.0,99,0.00,,,0.00,0.00,Weather logger V2.2.,2015-04-27 10:32:00,
2015-04-27 06:37:00,33.6,33.4,29.56,South,185,0.0,0.0,99,0.00,,,0.00,0.00,Weather logger V2.2.,2015-04-27 10:37:00,
2015-04-27 06:42:00,33.6,33.4,29.56,South,185,0.0,0.0,99,0.00,,,0.00,1.50,Weather logger V2.2.,2015-04-27 10:42:00,
2015-04-27 06:47:00,33.4,33.3,29.56,South,185,0.0,0.0,99,0.00,,,0.00,3.97,Weather logger V2.2.,2015-04-27 10:47:00,
2015-04-27 06:53:00,33.3,33.1,29.56,SE,145,0.0,0.0,99,0.00,,,0.00,6.86,Weather logger V2.2.,2015-04-27 10:53:00,
2015-04-27 06:58:00,33.3,33.1,29.57,SE,135,0.0,0.0,99,0.00,,,0.00,10.96,Weather logger V2.2.,2015-04-27 10:58:00,
2015-04-27 07:03:00,33.3,33.1,29.57,SE,135,0.0,0.0,99,0.00,,,0.00,13.96,Weather logger V2.2.,2015-04-27 11:03:00,
2015-04-27 07:08:00,33.1,32.9,29.58,SW,220,0.0,0.0,99,0.00,,,0.00,19.28,Weather logger V2.2.,2015-04-27 11:08:00,
2015-04-27 07:13:00,33.3,32.7,29.58,SW,219,0.0,0.0,98,0.00,,,0.00,24.12,Weather logger V2.2.,2015-04-27 11:13:00,
2015-04-27 07:18:00,33.4,32.9,29.58,SSE,149,0.0,0.0,98,0.00,,,0.00,29.33,Weather logger V2.2.,2015-04-27 11:18:00,
2015-04-27 07:23:00,33.6,33.1,29.57,SSE,148,0.0,0.0,98,0.00,,,0.00,35.53,Weather logger V2.2.,2015-04-27 11:23:00,
2015-04-27 07:28:00,33.8,33.3,29.57,SSE,148,0.0,0.0,98,0.00,,,0.00,50.84,Weather logger V2.2.,2015-04-27 11:28:00,
2015-04-27 07:33:00,34.2,33.6,29.58,SSE,149,0.0,0.0,98,0.00,,,0.00,41.88,Weather logger V2.2.,2015-04-27 11:33:00,
2015-04-27 07:38:00,34.3,33.8,29.59,SSW,212,0.0,0.0,98,0.00,,,0.00,51.88,Weather logger V2.2.,2015-04-27 11:38:00,
2015-04-27 07:43:00,34.7,34.0,29.59,SSW,213,0.0,0.0,97,0.00,,,0.00,53.76,Weather logger V2.2.,2015-04-27 11:43:00,
2015-04-27 07:48:00,35.1,34.3,29.59,SSW,213,0.0,0.0,97,0.00,,,0.00,58.76,Weather logger V2.2.,2015-04-27 11:48:00,
2015-04-27 07:53:00,35.6,35.4,29.60,SSW,201,0.0,0.0,99,0.00,,,0.00,58.55,Weather logger V2.2.,2015-04-27 11:53:00,
2015-04-27 07:58:00,36.1,36.0,29.60,SSW,200,0.0,0.0,99,0.00,,,0.00,78.03,Weather logger V2.2.,2015-04-27 11:58:00,
2015-04-27 08:03:00,36.9,36.7,29.61,South,183,0.0,0.0,99,0.00,,,0.00,68.24,Weather logger V2.2.,2015-04-27 12:03:00,
2015-04-27 08:09:00,37.6,37.4,29.61,South,184,0.0,0.0,99,0.00,,,0.00,72.62,Weather logger V2.2.,2015-04-27 12:09:00,
2015-04-27 08:14:00,38.5,38.3,29.61,South,184,0.0,0.0,99,0.00,,,0.00,99.69,Weather logger V2.2.,2015-04-27 12:14:00,
2015-04-27 08:19:00,39.4,39.2,29.60,SSW,196,0.0,0.0,99,0.00,,,0.00,75.01,Weather logger V2.2.,2015-04-27 12:19:00,
2015-04-27 08:24:00,40.5,39.9,29.60,SW,223,0.0,0.0,98,0.00,,,0.00,163.64,Weather logger V2.2.,2015-04-27 12:24:00,
2015-04-27 08:29:00,41.5,40.8,29.60,SSW,208,0.0,0.0,97,0.00,,,0.00,152.51,Weather logger V2.2.,2015-04-27 12:29:00,
2015-04-27 08:34:00,42.6,41.9,29.60,SSW,210,0.0,0.0,97,0.00,,,0.00,196.59,Weather logger V2.2.,2015-04-27 12:34:00,
2015-04-27 08:39:00,43.7,41.9,29.60,SSW,202,0.0,0.0,93,0.00,,,0.00,122.96,Weather logger V2.2.,2015-04-27 12:39:00,
2015-04-27 08:44:00,44.6,41.4,29.60,SW,218,0.0,0.0,88,0.00,,,0.00,109.91,Weather logger V2.2.,2015-04-27 12:44:00,
2015-04-27 08:49:00,45.5,41.0,29.59,South,191,0.0,0.0,84,0.00,,,0.00,181.24,Weather logger V2.2.,2015-04-27 12:49:00,
2015-04-27 08:54:00,46.2,40.5,29.60,West,272,0.9,2.5,80,0.00,,,0.00,96.70,Weather logger V2.2.,2015-04-27 12:54:00,
2015-04-27 08:59:00,46.9,40.1,29.60,ESE,122,0.0,0.0,77,0.00,,,0.00,160.11,Weather logger V2.2.,2015-04-27 12:59:00,
2015-04-27 09:04:00,47.7,39.7,29.60,South,171,0.2,2.5,74,0.00,,,0.00,145.37,Weather logger V2.2.,2015-04-27 13:04:00,
2015-04-27 09:09:00,48.2,40.3,29.60,SSW,211,0.0,0.0,74,0.00,,,0.00,284.05,Weather logger V2.2.,2015-04-27 13:09:00,
2015-04-27 09:14:00,48.9,39.9,29.60,SSW,207,0.0,0.0,71,0.00,,,0.00,296.65,Weather logger V2.2.,2015-04-27 13:14:00,
2015-04-27 09:19:00,49.6,40.3,29.60,WNW,287,0.2,2.5,70,0.00,,,0.00,308.15,Weather logger V2.2.,2015-04-27 13:19:00,
2015-04-27 09:25:00,50.2,40.8,29.61,WNW,291,0.0,0.0,70,0.00,,,0.00,320.13,Weather logger V2.2.,2015-04-27 13:25:00,
2015-04-27 09:30:00,50.7,40.3,29.60,South,183,0.0,0.0,67,0.00,,,0.00,329.94,Weather logger V2.2.,2015-04-27 13:30:00,
2015-04-27 09:35:00,51.4,38.1,29.60,SSE,165,0.0,0.0,60,0.00,,,0.00,344.22,Weather logger V2.2.,2015-04-27 13:35:00,
2015-04-27 09:40:00,52.2,38.7,29.60,NW,322,0.0,0.0,60,0.00,,,0.00,355.84,Weather logger V2.2.,2015-04-27 13:40:00,
2015-04-27 09:45:00,52.7,37.9,29.60,SSE,158,0.0,0.0,57,0.00,,,0.00,368.56,Weather logger V2.2.,2015-04-27 13:45:00,
2015-04-27 09:50:00,53.1,36.5,29.59,NE,35,0.0,0.0,53,0.00,,,0.00,378.24,Weather logger V2.2.,2015-04-27 13:50:00,
2015-04-27 09:55:00,53.4,36.3,29.60,SSE,159,0.2,2.5,52,0.00,,,0.00,391.25,Weather logger V2.2.,2015-04-27 13:55:00,
2015-04-27 10:00:00,54.0,34.7,29.59,SE,144,0.0,0.0,48,0.00,,,0.00,403.49,Weather logger V2.2.,2015-04-27 14:00:00,
2015-04-27 10:05:00,54.3,33.4,29.59,East,100,0.0,0.0,45,0.00,,,0.00,415.35,Weather logger V2.2.,2015-04-27 14:05:00,
2015-04-27 10:10:00,55.0,31.8,29.59,WNW,289,0.4,2.5,41,0.00,,,0.00,432.54,Weather logger V2.2.,2015-04-27 14:10:00,
2015-04-27 10:15:00,55.9,36.0,29.59,NE,55,0.9,2.5,47,0.00,,,0.00,442.43,Weather logger V2.2.,2015-04-27 14:15:00,
2015-04-27 10:20:00,56.5,38.7,29.59,NE,42,2.5,4.9,51,0.00,,,0.00,452.12,Weather logger V2.2.,2015-04-27 14:20:00,
2015-04-27 10:25:00,57.4,39.0,29.59,East,99,0.0,0.0,50,0.00,,,0.00,464.72,Weather logger V2.2.,2015-04-27 14:25:00,
2015-04-27 10:30:00,58.3,39.7,29.59,NNE,18,1.1,2.5,50,0.00,,,0.00,477.89,Weather logger V2.2.,2015-04-27 14:30:00,
2015-04-27 10:35:00,58.8,40.3,29.59,ESE,122,0.0,0.0,50,0.00,,,0.00,493.74,Weather logger V2.2.,2015-04-27 14:35:00,
2015-04-27 10:41:00,59.0,41.0,29.59,NNW,342,0.2,2.5,51,0.00,,,0.00,503.55,Weather logger V2.2.,2015-04-27 14:41:00,
2015-04-27 10:46:00,59.0,41.4,29.59,South,180,1.1,2.5,52,0.00,,,0.00,509.74,Weather logger V2.2.,2015-04-27 14:46:00,
2015-04-27 10:51:00,59.2,41.2,29.58,SE,128,0.0,0.0,51,0.00,,,0.00,520.00,Weather logger V2.2.,2015-04-27 14:51:00,
2015-04-27 10:56:00,59.4,40.3,29.58,West,275,0.4,2.5,49,0.00,,,0.00,529.11,Weather logger V2.2.,2015-04-27 14:56:00,
2015-04-27 11:01:00,59.4,40.3,29.58,NNE,14,0.4,2.5,49,0.00,,,0.00,544.14,Weather logger V2.2.,2015-04-27 15:01:00,
2015-04-27 11:06:00,59.5,40.5,29.58,North,349,4.0,4.9,49,0.00,,,0.00,551.07,Weather logger V2.2.,2015-04-27 15:06:00,
2015-04-27 11:11:00,59.4,40.3,29.58,SE,138,1.1,2.5,49,0.00,,,0.00,563.84,Weather logger V2.2.,2015-04-27 15:11:00,
2015-04-27 11:16:00,59.7,40.6,29.58,WSW,256,0.2,2.5,49,0.00,,,0.00,572.09,Weather logger V2.2.,2015-04-27 15:16:00,
2015-04-27 11:21:00,60.1,40.8,29.58,NE,45,2.0,2.5,49,0.00,,,0.00,586.20,Weather logger V2.2.,2015-04-27 15:21:00,
2015-04-27 11:26:00,60.3,39.9,29.58,ESE,112,0.2,2.5,47,0.00,,,0.00,591.74,Weather logger V2.2.,2015-04-27 15:26:00,
2015-04-27 11:31:00,60.4,39.0,29.58,NNE,14,0.4,2.5,45,0.00,,,0.00,595.89,Weather logger V2.2.,2015-04-27 15:31:00,
2015-04-27 11:36:00,60.6,38.7,29.58,NE,35,2.0,2.5,44,0.00,,,0.00,607.87,Weather logger V2.2.,2015-04-27 15:36:00,
2015-04-27 11:41:00,61.0,38.3,29.59,North,355,0.2,2.5,43,0.00,,,0.00,613.95,Weather logger V2.2.,2015-04-27 15:41:00,
2015-04-27 11:46:00,61.2,37.9,29.59,ESE,113,0.4,2.5,42,0.00,,,0.00,621.50,Weather logger V2.2.,2015-04-27 15:46:00,
2015-04-27 11:51:00,61.3,38.1,29.59,WSW,247,1.3,2.5,42,0.00,,,0.00,629.46,Weather logger V2.2.,2015-04-27 15:51:00,
2015-04-27 11:57:00,61.2,39.2,29.60,SSW,204,1.3,2.5,44,0.00,,,0.00,634.80,Weather logger V2.2.,2015-04-27 15:57:00,
2015-04-27 12:02:00,61.3,36.9,29.60,WNW,293,0.0,0.0,40,0.00,,,0.00,648.26,Weather logger V2.2.,2015-04-27 16:02:00,
2015-04-27 12:07:00,61.7,36.5,29.60,South,182,0.0,0.0,39,0.00,,,0.00,656.92,Weather logger V2.2.,2015-04-27 16:07:00,
2015-04-27 12:12:00,61.9,37.4,29.60,ENE,58,2.0,4.9,40,0.00,,,0.00,669.52,Weather logger V2.2.,2015-04-27 16:12:00,
2015-04-27 12:17:00,61.9,37.4,29.59,SSW,203,0.4,2.5,40,0.00,,,0.00,691.07,Weather logger V2.2.,2015-04-27 16:17:00,
2015-04-27 12:22:00,62.1,36.9,29.60,West,271,1.8,2.5,39,0.00,,,0.00,663.28,Weather logger V2.2.,2015-04-27 16:22:00,
2015-04-27 12:27:00,62.2,38.3,29.60,North,11,0.0,0.0,41,0.00,,,0.00,695.33,Weather logger V2.2.,2015-04-27 16:27:00,
2015-04-27 12:32:00,62.4,39.7,29.60,SE,141,2.5,2.5,43,0.00,,,0.00,687.29,Weather logger V2.2.,2015-04-27 16:32:00,
2015-04-27 12:37:00,62.2,37.6,29.59,North,354,0.4,2.5,40,0.00,,,0.00,689.51,Weather logger V2.2.,2015-04-27 16:37:00,
2015-04-27 12:42:00,62.2,38.3,29.60,SSW,206,1.3,2.5,41,0.00,,,0.00,695.62,Weather logger V2.2.,2015-04-27 16:42:00,
2015-04-27 12:47:00,62.4,37.8,29.59,NNE,31,5.8,7.4,40,0.00,,,0.00,695.79,Weather logger V2.2.,2015-04-27 16:47:00,
2015-04-27 12:52:00,62.6,36.7,29.60,SSW,199,2.5,4.9,38,0.00,,,0.00,703.25,Weather logger V2.2.,2015-04-27 16:52:00,
2015-04-27 12:57:00,62.6,39.2,29.59,NE,48,1.8,2.5,42,0.00,,,0.00,718.52,Weather logger V2.2.,2015-04-27 16:57:00,
2015-04-27 13:02:00,62.8,38.1,29.60,NNE,21,0.0,0.0,40,0.00,,,0.00,716.06,Weather logger V2.2.,2015-04-27 17:02:00,
2015-04-27 13:07:00,63.0,38.3,29.60,East,88,0.0,0.0,40,0.00,,,0.00,728.09,Weather logger V2.2.,2015-04-27 17:07:00,
2015-04-27 13:13:00,63.1,37.8,29.60,NNE,33,1.8,2.5,39,0.00,,,0.00,755.87,Weather logger V2.2.,2015-04-27 17:13:00,
2015-04-27 13:18:00,63.3,39.2,29.60,NE,42,0.0,0.0,41,0.00,,,0.00,812.70,Weather logger V2.2.,2015-04-27 17:18:00,
2015-04-27 13:23:00,63.3,38.7,29.59,West,273,2.0,2.5,40,0.00,,,0.00,433.40,Weather logger V2.2.,2015-04-27 17:23:00,
2015-04-27 13:28:00,63.1,37.2,29.59,SSW,200,0.0,0.0,38,0.00,,,0.00,795.71,Weather logger V2.2.,2015-04-27 17:28:00,
2015-04-27 13:33:00,63.0,37.0,29.58,NNW,348,1.1,2.5,38,0.00,,,0.00,169.96,Weather logger V2.2.,2015-04-27 17:33:00,
2015-04-27 13:38:00,62.8,37.6,29.58,NW,312,1.1,2.5,39,0.00,,,0.00,735.27,Weather logger V2.2.,2015-04-27 17:38:00,
2015-04-27 13:43:00,62.6,36.0,29.58,NE,34,0.0,0.0,37,0.00,,,0.00,797.15,Weather logger V2.2.,2015-04-27 17:43:00,
2015-04-27 13:48:00,62.8,37.6,29.59,East,94,0.0,0.0,39,0.00,,,0.00,804.37,Weather logger V2.2.,2015-04-27 17:48:00,
2015-04-27 13:53:00,63.0,37.0,29.58,ENE,59,2.9,4.9,38,0.00,,,0.00,226.31,Weather logger V2.2.,2015-04-27 17:53:00,
2015-04-27 13:58:00,63.1,37.2,29.58,ENE,70,0.2,2.5,38,0.00,,,0.00,316.44,Weather logger V2.2.,2015-04-27 17:58:00,
2015-04-27 14:03:00,62.8,37.6,29.58,West,260,0.2,2.5,39,0.00,,,0.00,219.17,Weather logger V2.2.,2015-04-27 18:03:00,
2015-04-27 14:08:00,63.1,39.0,29.58,NW,317,1.3,2.5,41,0.00,,,0.00,834.78,Weather logger V2.2.,2015-04-27 18:08:00,
2015-04-27 14:13:00,63.1,37.2,29.59,NE,45,5.8,7.4,38,0.00,,,0.00,147.18,Weather logger V2.2.,2015-04-27 18:13:00,
2015-04-27 14:18:00,62.8,38.1,29.58,West,276,0.0,0.0,40,0.00,,,0.00,795.67,Weather logger V2.2.,2015-04-27 18:18:00,
2015-04-27 14:23:00,62.8,38.1,29.58,North,349,3.6,4.9,40,0.00,,,0.00,813.03,Weather logger V2.2.,2015-04-27 18:23:00,
2015-04-27 14:29:00,63.1,37.2,29.58,West,267,1.1,2.5,38,0.00,,,0.00,813.32,Weather logger V2.2.,2015-04-27 18:29:00,
2015-04-27 14:34:00,63.7,37.6,29.57,WNW,284,2.5,2.5,38,0.00,,,0.00,789.76,Weather logger V2.2.,2015-04-27 18:34:00,
2015-04-27 14:39:00,63.9,40.3,29.57,North,10,1.8,4.9,42,0.00,,,0.00,841.18,Weather logger V2.2.,2015-04-27 18:39:00,
2015-04-27 14:44:00,64.0,38.7,29.57,North,0,0.2,2.5,39,0.00,,,0.00,595.15,Weather logger V2.2.,2015-04-27 18:44:00,
2015-04-27 14:49:00,64.4,39.6,29.57,NE,53,2.0,4.9,40,0.00,,,0.00,816.35,Weather logger V2.2.,2015-04-27 18:49:00,
2015-04-27 14:54:00,64.6,37.8,29.57,NE,47,0.4,2.5,37,0.00,,,0.00,231.93,Weather logger V2.2.,2015-04-27 18:54:00,
2015-04-27 14:59:00,64.2,38.8,29.57,South,191,0.0,0.0,39,0.00,,,0.00,176.24,Weather logger V2.2.,2015-04-27 18:59:00,
2015-04-27 15:04:00,64.0,39.2,29.57,SW,226,0.2,2.5,40,0.00,,,0.00,218.84,Weather logger V2.2.,2015-04-27 19:04:00,
2015-04-27 15:09:00,64.0,38.7,29.57,ENE,63,2.7,4.9,39,0.00,,,0.00,829.28,Weather logger V2.2.,2015-04-27 19:09:00,
2015-04-27 15:14:00,64.0,37.9,29.57,NNE,29,2.5,2.5,38,0.00,,,0.00,844.92,Weather logger V2.2.,2015-04-27 19:14:00,
2015-04-27 15:19:00,64.0,38.7,29.57,SW,232,4.5,7.4,39,0.00,,,0.00,182.80,Weather logger V2.2.,2015-04-27 19:19:00,
2015-04-27 15:24:00,63.5,38.8,29.56,SW,234,0.0,0.0,40,0.00,,,0.00,465.46,Weather logger V2.2.,2015-04-27 19:24:00,
2015-04-27 15:29:00,63.3,38.7,29.57,NNW,336,0.0,0.0,40,0.00,,,0.00,353.13,Weather logger V2.2.,2015-04-27 19:29:00,
2015-04-27 15:34:00,63.3,37.9,29.56,SE,135,0.2,2.5,39,0.00,,,0.00,750.49,Weather logger V2.2.,2015-04-27 19:34:00,
2015-04-27 15:39:00,63.3,35.2,29.56,NNW,328,1.8,2.5,35,0.00,,,0.00,240.26,Weather logger V2.2.,2015-04-27 19:39:00,
2015-04-27 15:45:00,62.8,37.6,29.56,SSW,192,6.0,9.8,39,0.00,,,0.00,212.15,Weather logger V2.2.,2015-04-27 19:45:00,
2015-04-27 15:50:00,62.4,37.8,29.57,WSW,244,2.0,2.5,40,0.00,,,0.00,207.43,Weather logger V2.2.,2015-04-27 19:50:00,
2015-04-27 15:55:00,62.2,38.3,29.56,SSW,212,2.5,4.9,41,0.00,,,0.00,261.89,Weather logger V2.2.,2015-04-27 19:55:00,
2015-04-27 16:00:00,62.4,36.5,29.57,SW,214,0.0,0.0,38,0.00,,,0.00,276.83,Weather logger V2.2.,2015-04-27 20:00:00,
2015-04-27 16:05:00,62.2,37.0,29.57,WSW,250,2.0,2.5,39,0.00,,,0.00,350.95,Weather logger V2.2.,2015-04-27 20:05:00,
2015-04-27 16:10:00,62.1,36.9,29.57,ENE,67,0.4,2.5,39,0.00,,,0.00,256.35,Weather logger V2.2.,2015-04-27 20:10:00,
2015-04-27 16:15:00,62.2,38.8,29.56,WNW,302,3.6,4.9,42,0.00,,,0.00,938.78,Weather logger V2.2.,2015-04-27 20:15:00,
2015-04-27 16:20:00,63.1,35.8,29.56,North,6,0.0,0.0,36,0.00,,,0.00,342.21,Weather logger V2.2.,2015-04-27 20:20:00,
2015-04-27 16:25:00,64.0,37.2,29.57,SSW,213,1.1,2.5,37,0.00,,,0.00,348.61,Weather logger V2.2.,2015-04-27 20:25:00,
2015-04-27 16:30:00,64.6,38.5,29.57,NNE,12,2.7,4.9,38,0.00,,,0.00,349.27,Weather logger V2.2.,2015-04-27 20:30:00,
2015-04-27 16:35:00,64.8,39.9,29.56,NE,48,0.2,2.5,40,0.00,,,0.00,301.95,Weather logger V2.2.,2015-04-27 20:35:00,
2015-04-27 16:41:00,65.1,41.5,29.56,NNE,22,5.8,7.4,42,0.00,,,0.00,867.78,Weather logger V2.2.,2015-04-27 20:41:00,
2015-04-27 16:51:00,64.9,40.6,29.57,NE,56,0.0,0.0,41,0.00,,,0.00,474.49,Weather logger V2.2.,2015-04-27 20:51:00,
2015-04-27 16:56:00,64.4,40.3,29.57,NE,51,1.8,4.9,41,0.00,,,0.00,263.82,Weather logger V2.2.,2015-04-27 20:56:00,
2015-04-27 17:01:00,63.9,41.0,29.57,NNE,19,5.6,7.4,43,0.00,,,0.00,520.45,Weather logger V2.2.,2015-04-27 21:01:00,
2015-04-27 17:06:00,63.5,39.4,29.57,South,169,0.0,0.0,41,0.00,,,0.00,204.76,Weather logger V2.2.,2015-04-27 21:06:00,
2015-04-27 17:11:00,63.0,40.8,29.58,NE,47,0.9,2.5,44,0.00,,,0.00,181.70,Weather logger V2.2.,2015-04-27 21:11:00,
2015-04-27 17:16:00,62.4,40.3,29.58,SSW,211,0.0,0.0,44,0.00,,,0.00,569.83,Weather logger V2.2.,2015-04-27 21:16:00,
2015-04-27 17:21:00,62.1,38.7,29.58,NNW,346,0.4,2.5,42,0.00,,,0.00,177.55,Weather logger V2.2.,2015-04-27 21:21:00,
2015-04-27 17:26:00,61.9,38.7,29.58,NNW,341,2.9,4.9,42,0.00,,,0.00,185.35,Weather logger V2.2.,2015-04-27 21:26:00,
2015-04-27 17:31:00,61.9,39.2,29.58,NE,43,1.8,2.5,43,0.00,,,0.00,187.89,Weather logger V2.2.,2015-04-27 21:31:00,
2015-04-27 17:36:00,61.7,40.1,29.58,ENE,68,0.0,0.0,45,0.00,,,0.00,193.76,Weather logger V2.2.,2015-04-27 21:36:00,
2015-04-27 17:41:00,61.7,40.1,29.58,NNW,337,2.5,4.9,45,0.00,,,0.00,190.93,Weather logger V2.2.,2015-04-27 21:41:00,
2015-04-27 17:47:00,61.5,40.6,29.58,North,356,4.2,4.9,46,0.00,,,0.00,187.48,Weather logger V2.2.,2015-04-27 21:47:00,
2015-04-27 17:52:00,61.3,40.5,29.58,NNW,347,1.1,2.5,46,0.00,,,0.00,233.61,Weather logger V2.2.,2015-04-27 21:52:00,
2015-04-27 17:57:00,61.3,39.9,29.59,ENE,67,3.4,4.9,45,0.00,,,0.00,217.24,Weather logger V2.2.,2015-04-27 21:57:00,
2015-04-27 18:02:00,61.2,42.4,29.59,SW,233,4.9,7.4,50,0.00,,,0.00,173.94,Weather logger V2.2.,2015-04-27 22:02:00,
2015-04-27 18:07:00,61.0,42.3,29.59,NW,315,0.9,2.5,50,0.00,,,0.00,163.43,Weather logger V2.2.,2015-04-27 22:07:00,
2015-04-27 18:12:00,60.6,41.9,29.59,North,4,2.9,4.9,50,0.00,,,0.00,169.10,Weather logger V2.2.,2015-04-27 22:12:00,
2015-04-27 18:17:00,60.6,41.4,29.60,NNE,31,1.8,2.5,49,0.00,,,0.00,202.83,Weather logger V2.2.,2015-04-27 22:17:00,
2015-04-27 18:27:00,60.4,41.7,29.60,NNE,28,3.4,4.9,50,0.00,,,0.00,166.30,Weather logger V2.2.,2015-04-27 22:27:00,
2015-04-27 18:32:00,60.1,41.4,29.60,WSW,239,2.0,4.9,50,0.00,,,0.00,225.98,Weather logger V2.2.,2015-04-27 22:32:00,
2015-04-27 18:37:00,60.1,40.8,29.60,NW,325,2.5,4.9,49,0.00,,,0.00,189.29,Weather logger V2.2.,2015-04-27 22:37:00,
2015-04-27 18:42:00,60.1,41.4,29.60,North,354,4.0,4.9,50,0.00,,,0.00,219.99,Weather logger V2.2.,2015-04-27 22:42:00,
2015-04-27 18:47:00,59.9,41.2,29.60,North,10,4.2,4.9,50,0.00,,,0.00,143.90,Weather logger V2.2.,2015-04-27 22:47:00,
2015-04-27 18:53:00,59.7,42.1,29.60,NNE,33,2.9,4.9,52,0.00,,,0.00,176.52,Weather logger V2.2.,2015-04-27 22:53:00,
2015-04-27 18:59:00,59.5,41.9,29.60,WSW,256,3.4,4.9,52,0.00,,,0.00,106.75,Weather logger V2.2.,2015-04-27 22:59:00,
2015-04-27 19:03:00,59.4,41.7,29.60,North,9,1.1,2.5,52,0.00,,,0.00,94.19,Weather logger V2.2.,2015-04-27 23:03:00,
2015-04-27 19:09:00,59.2,41.5,29.60,NNE,23,4.0,4.9,52,0.00,,,0.00,90.79,Weather logger V2.2.,2015-04-27 23:09:00,
2015-04-27 19:14:00,58.8,41.4,29.60,North,9,3.4,4.9,52,0.00,,,0.00,86.64,Weather logger V2.2.,2015-04-27 23:14:00,
2015-04-27 19:19:00,58.5,41.4,29.60,ENE,58,2.7,4.9,53,0.00,,,0.00,83.61,Weather logger V2.2.,2015-04-27 23:19:00,
2015-04-27 19:24:00,58.1,41.2,29.60,NNE,18,1.1,2.5,53,0.00,,,0.00,73.92,Weather logger V2.2.,2015-04-27 23:24:00,
2015-04-27 19:29:00,57.7,41.2,29.60,NW,314,0.9,2.5,54,0.00,,,0.00,63.19,Weather logger V2.2.,2015-04-27 23:29:00,
2015-04-27 19:34:00,57.6,41.5,29.61,NNE,16,0.9,2.5,55,0.00,,,0.00,50.37,Weather logger V2.2.,2015-04-27 23:34:00,
2015-04-27 19:39:00,57.2,40.8,29.61,NNE,14,2.5,4.9,54,0.00,,,0.00,41.41,Weather logger V2.2.,2015-04-27 23:39:00,
2015-04-27 19:44:00,57.0,40.6,29.61,NNE,18,5.1,7.4,54,0.00,,,0.00,37.56,Weather logger V2.2.,2015-04-27 23:44:00,
2015-04-27 19:49:00,56.8,40.5,29.61,NNE,18,1.3,2.5,54,0.00,,,0.00,33.55,Weather logger V2.2.,2015-04-27 23:49:00,
2015-04-27 19:54:00,56.8,40.8,29.61,North,11,4.5,4.9,55,0.00,,,0.00,27.09,Weather logger V2.2.,2015-04-27 23:54:00,
2015-04-27 19:59:00,56.7,40.3,29.61,NNE,26,5.1,7.4,54,0.00,,,0.00,20.89,Weather logger V2.2.,2015-04-27 23:59:00,
2015-04-27 20:04:00,56.7,41.2,29.61,NNE,21,6.7,7.4,56,0.00,,,0.00,14.90,Weather logger V2.2.,2015-04-28 00:04:00,
2015-04-27 20:09:00,56.5,40.5,29.61,NE,34,1.1,2.5,55,0.00,,,0.00,10.37,Weather logger V2.2.,2015-04-28 00:09:00,
2015-04-27 20:14:00,56.3,40.8,29.61,NE,51,1.3,2.5,56,0.00,,,0.00,6.15,Weather logger V2.2.,2015-04-28 00:14:00,
2015-04-27 20:19:00,56.1,40.6,29.61,NNE,27,0.0,0.0,56,0.00,,,0.00,3.52,Weather logger V2.2.,2015-04-28 00:19:00,
2015-04-27 20:25:00,55.8,40.8,29.62,ENE,61,1.3,2.5,57,0.00,,,0.00,1.43,Weather logger V2.2.,2015-04-28 00:25:00,
2015-04-27 20:30:00,55.6,40.6,29.62,NNE,12,3.6,4.9,57,0.00,,,0.00,0.33,Weather logger V2.2.,2015-04-28 00:30:00,
2015-04-27 20:36:00,55.6,40.6,29.63,NE,35,2.7,4.9,57,0.00,,,0.00,0.00,Weather logger V2.2.,2015-04-28 00:36:00,
2015-04-27 20:41:00,55.2,39.9,29.63,NNE,29,1.1,2.5,56,0.00,,,0.00,0.00,Weather logger V2.2.,2015-04-28 00:41:00,
2015-04-27 20:46:00,55.0,40.1,29.62,ENE,59,3.4,4.9,57,0.00,,,0.00,0.00,Weather logger V2.2.,2015-04-28 00:46:00,
2015-04-27 20:51:00,54.7,40.3,29.63,ENE,58,0.2,2.5,58,0.00,,,0.00,0.00,Weather logger V2.2.,2015-04-28 00:51:00,
2015-04-27 20:56:00,54.3,39.9,29.63,North,1,1.8,2.5,58,0.00,,,0.00,0.00,Weather logger V2.2.,2015-04-28 00:56:00,
2015-04-27 21:01:00,54.1,39.7,29.63,WNW,298,2.5,4.9,58,0.00,,,0.00,0.00,Weather logger V2.2.,2015-04-28 01:01:00,
2015-04-27 21:06:00,53.8,39.7,29.63,NE,39,0.0,0.0,59,0.00,,,0.00,0.00,Weather logger V2.2.,2015-04-28 01:06:00,
2015-04-27 21:11:00,53.6,39.7,29.64,NNE,16,0.2,2.5,59,0.00,,,0.00,0.00,Weather logger V2.2.,2015-04-28 01:11:00,
2015-04-27 21:16:00,53.6,39.7,29.64,NNE,13,6.5,7.4,59,0.00,,,0.00,0.00,Weather logger V2.2.,2015-04-28 01:16:00,
2015-04-27 21:21:00,53.4,39.6,29.64,NNE,19,3.6,4.9,59,0.00,,,0.00,0.00,Weather logger V2.2.,2015-04-28 01:21:00,
2015-04-27 21:26:00,53.4,39.9,29.64,NE,38,2.7,4.9,60,0.00,,,0.00,0.00,Weather logger V2.2.,2015-04-28 01:26:00,
2015-04-27 21:31:00,53.2,39.7,29.64,North,1,3.6,7.4,60,0.00,,,0.00,0.00,Weather logger V2.2.,2015-04-28 01:31:00,
2015-04-27 21:36:00,53.1,39.6,29.64,NE,55,5.1,7.4,60,0.00,,,0.00,0.00,Weather logger V2.2.,2015-04-28 01:36:00,
2015-04-27 21:41:00,52.9,39.7,29.65,NE,38,4.9,7.4,61,0.00,,,0.00,0.00,Weather logger V2.2.,2015-04-28 01:41:00,
2015-04-27 21:46:00,52.5,40.3,29.64,NNE,13,2.7,4.9,63,0.00,,,0.00,0.00,Weather logger V2.2.,2015-04-28 01:46:00,
2015-04-27 21:51:00,52.3,40.1,29.65,NE,37,2.9,4.9,63,0.00,,,0.00,0.00,Weather logger V2.2.,2015-04-28 01:51:00,
2015-04-27 21:57:00,52.0,40.3,29.65,NNE,30,4.5,4.9,64,0.00,,,0.00,0.00,Weather logger V2.2.,2015-04-28 01:57:00,
2015-04-27 22:02:00,51.6,39.9,29.65,NNE,18,2.7,4.9,64,0.00,,,0.00,0.00,Weather logger V2.2.,2015-04-28 02:02:00,
2015-04-27 22:07:00,51.4,40.1,29.65,NNE,29,5.1,7.4,65,0.00,,,0.00,0.00,Weather logger V2.2.,2015-04-28 02:07:00,
2015-04-27 22:12:00,51.3,39.9,29.66,NE,53,3.6,7.4,65,0.00,,,0.00,0.00,Weather logger V2.2.,2015-04-28 02:12:00,
2015-04-27 22:17:00,51.1,39.7,29.65,NNE,31,5.6,7.4,65,0.00,,,0.00,0.00,Weather logger V2.2.,2015-04-28 02:17:00,
2015-04-27 22:22:00,50.9,39.6,29.66,NNE,31,5.6,9.8,65,0.00,,,0.00,0.00,Weather logger V2.2.,2015-04-28 02:22:00,
2015-04-27 22:27:00,50.7,39.4,29.66,North,3,1.8,2.5,65,0.00,,,0.00,0.00,Weather logger V2.2.,2015-04-28 02:27:00,
2015-04-27 22:32:00,50.5,39.6,29.66,North,8,1.3,2.5,66,0.00,,,0.00,0.00,Weather logger V2.2.,2015-04-28 02:32:00,
2015-04-27 22:37:00,50.4,39.9,29.67,ENE,67,1.1,2.5,67,0.00,,,0.00,0.00,Weather logger V2.2.,2015-04-28 02:37:00,
2015-04-27 22:42:00,50.4,40.3,29.67,ENE,64,0.2,2.5,68,0.00,,,0.00,0.00,Weather logger V2.2.,2015-04-28 02:42:00,
2015-04-27 22:47:00,50.2,40.5,29.67,NNE,33,2.5,2.5,69,0.00,,,0.00,0.00,Weather logger V2.2.,2015-04-28 02:47:00,
2015-04-27 22:57:00,49.6,40.3,29.68,NNE,15,0.0,0.0,70,0.00,,,0.00,0.00,Weather logger V2.2.,2015-04-28 02:57:00,
2015-04-27 23:02:00,49.5,40.5,29.68,NNE,31,1.3,2.5,71,0.00,,,0.00,0.00,Weather logger V2.2.,2015-04-28 03:02:00,